Location: L�gaud
(45.7115°N, 1.7775°E)
Time: 13:21:07
(UTC+00:00)

Meteor 1-20 Rocket - Pass Details

Date: 03 March 2021
Orbit: 820 x 891 km, 81.2° (Epoch: 15 April)

Event Time Altitude Azimuth Distance (km) Brightness Sun altitude
Rises 18:06:44 0° 181° (S) 3,338 7.4 -5.0°
Reaches altitude 10° 18:09:07 10° 178° (S) 2,409 6.6 -5.4°
Maximum altitude 18:14:30 67° 97° (E) 889 4.1 -6.4°
Drops below altitude 10° 18:19:58 10° 16° (NNE) 2,442 6.4 -7.3°
Sets 18:22:24 0° 14° (NNE) 3,387 7.2 -7.7°
